Weather History for KCSM - February, 2013

Change the Weather History Date:

Thursday, February 7, 2013

  Actual Average Record
Temperature  
Mean Temperature 47 °F -  
Max Temperature 57 °F 49 °F 73 °F (2009)
Min Temperature 36 °F 29 °F 9 °F (2014)
Degree Days  
Heating Degree Days 18    
Moisture  
Dew Point 44 °F    
Average Humidity 74    
Maximum Humidity 94    
Minimum Humidity 30    
Precipitation  
Precipitation 0.00 in - - ()
Sea Level Pressure  
Sea Level Pressure 29.94 in    
Wind  
Wind Speed 19 mph (North)    
Max Wind Speed 31 mph    
Max Gust Speed 40 mph    
Visibility 9 miles    
Events      
Averages and records for this station are not official NWS values.
T = Trace of Precipitation, MM = Missing Value Source: NWS Daily Summary

Daily Weather History Graph

Daily Weather History Graph

Search for Another Location

Airport or City:

Trip Planner

Search our weather history database for the weather conditions in past years. The results will help you decide how hot, cold, wet, or windy it might be!

Date:

Astronomy

Feb. 07, 2013 Rise Set
Actual Time 7:30 AM CST 6:11 PM CST
Civil Twilight 7:04 AM CST 6:37 PM CST
Nautical Twilight 6:34 AM CST 7:07 PM CST
Astronomical Twilight 6:04 AM CST 7:37 PM CST
Moon 5:08 AM CST (2/7) 3:40 PM CST (2/7)
Length of Visible Light 11h 33m
Length of Day
10h 40m
Waning Crescent, 9% of the Moon is Illuminated
Feb 7
Waning Crescent
Feb 10
New
Feb 17
First Quarter
Feb 25
Full
Mar 4
Last Quarter

Hourly Weather History & Observations

Time (CST) Temp. Windchill Dew Point Humidity Pressure Visibility Wind Dir Wind Speed Gust Speed Precip Events Conditions
12:14 AM 55.4 °F - 53.6 °F 94% 29.81 in 7.0 mi SSE 23.0 mph - N/A   Mostly Cloudy
12:53 AM 57.0 °F - 54.0 °F 89% 29.78 in 6.0 mi SSE 21.9 mph - N/A   Overcast
1:53 AM 57.9 °F - 55.0 °F 90% 29.76 in 7.0 mi South 24.2 mph 34.5 mph N/A   Overcast
2:53 AM 57.0 °F - 55.0 °F 93% 29.75 in 7.0 mi South 19.6 mph 32.2 mph N/A   Overcast
3:53 AM 57.0 °F - 55.0 °F 93% 29.73 in 8.0 mi SSE 19.6 mph - N/A   Overcast
4:53 AM 57.0 °F - 54.0 °F 89% 29.72 in 8.0 mi South 20.7 mph 25.3 mph N/A   Overcast
5:53 AM 55.9 °F - 54.0 °F 93% 29.74 in 8.0 mi South 16.1 mph - N/A   Overcast
6:50 AM 55.4 °F - 53.6 °F 94% 29.81 in 7.0 mi NW 8.1 mph - N/A   Overcast
6:53 AM 55.0 °F - 53.1 °F 93% 29.78 in 7.0 mi WNW 6.9 mph - N/A   Overcast
7:38 AM 53.6 °F - 51.8 °F 94% 29.83 in 8.0 mi NNW 5.8 mph - N/A   Mostly Cloudy
7:53 AM 54.0 °F - 52.0 °F 93% 29.81 in 7.0 mi NNW 4.6 mph - N/A   Mostly Cloudy
8:53 AM 57.9 °F - 54.0 °F 87% 29.84 in 9.0 mi North 18.4 mph - N/A   Mostly Cloudy
9:10 AM 55.4 °F - 51.8 °F 88% 29.88 in 8.0 mi North 27.6 mph 33.4 mph N/A   Overcast
9:53 AM 53.1 °F - 48.0 °F 83% 29.89 in 7.0 mi North 23.0 mph 32.2 mph N/A   Overcast
10:35 AM 55.4 °F - 48.2 °F 77% 29.94 in 10.0 mi North 31.1 mph 36.8 mph N/A   Overcast
10:53 AM 54.0 °F - 46.9 °F 77% 29.93 in 10.0 mi North 28.8 mph 39.1 mph N/A   Overcast
11:40 AM 57.2 °F - 46.4 °F 67% 29.96 in 10.0 mi North 31.1 mph 40.3 mph N/A   Scattered Clouds
11:53 AM 57.0 °F - 45.0 °F 64% 29.94 in 10.0 mi North 26.5 mph 36.8 mph N/A   Scattered Clouds
12:53 PM 57.0 °F - 43.0 °F 59% 29.96 in 10.0 mi North 27.6 mph 34.5 mph N/A   Mostly Cloudy
1:53 PM 54.0 °F - 41.0 °F 62% 30.00 in 10.0 mi North 23.0 mph 31.1 mph N/A   Mostly Cloudy
2:53 PM 55.9 °F - 41.0 °F 57% 30.01 in 10.0 mi North 26.5 mph 31.1 mph N/A   Overcast
3:53 PM 55.9 °F - 28.9 °F 36% 30.03 in 10.0 mi North 26.5 mph 34.5 mph N/A   Clear
4:53 PM 55.9 °F - 25.0 °F 30% 30.04 in 10.0 mi North 25.3 mph 34.5 mph N/A   Clear
5:53 PM 53.1 °F - 27.0 °F 37% 30.07 in 10.0 mi North 17.3 mph - N/A   Clear
6:53 PM 45.0 °F 40.6 °F 28.9 °F 53% 30.11 in 10.0 mi North 8.1 mph - N/A   Clear
7:53 PM 44.1 °F 38.6 °F 30.9 °F 60% 30.14 in 10.0 mi North 10.4 mph - N/A   Clear
8:53 PM 43.0 °F 37.7 °F 30.9 °F 62% 30.17 in 10.0 mi North 9.2 mph - N/A   Clear
9:53 PM 39.0 °F 33.4 °F 28.9 °F 67% 30.20 in 10.0 mi North 8.1 mph - N/A   Clear
10:53 PM 37.0 °F 32.4 °F 27.0 °F 67% 30.22 in 10.0 mi North 5.8 mph - N/A   Clear
11:53 PM 36.0 °F 29.6 °F 27.0 °F 70% 30.23 in 10.0 mi North 8.1 mph - N/A   Clear